User: anonymous   Login
Location: Peterborough
(44.3091°N, 78.3197°W)
Time: 15:34:24
(UTC-04:00)
Language:

Tiangong - Orbit

View from above orbital plane
View from above orbital plane
View from above satellite
View from above satellite

Ground track
Ground track

The orbit data is extracted from the following two-line orbital elements,

1 48274U 21035A   24287.42261073  .00037734  00000-0  37999-3 0  9998
2 48274  41.4663  81.8990 0003964 196.7830 163.2879 15.64652229197591
Epoch (UTC): 13 October 2024 10:08:33
Eccentricity: 0.0003964
inclination: 41.4663°
perigee height: 371 km
apogee height: 377 km
right ascension of ascending node: 81.8990°
argument of perigee: 196.7830°
revolutions per day: 15.64652229
mean anomaly at epoch: 163.2879°
orbit number at epoch: 19759

The dashed part of the orbit path shows where the satellite is in the earth's shadow,  

DLR